When you browse on this site, cookies collect data to enhance your experience and personalize the content and advertising you see.
Visit our Privacy Policy to learn more. By continuing to use the site, you agree to this use of cookies and data.
  • In Österreich
  • Länderverzeichnis
  • Für 7 Tage
  • Wassertemperatur
  • Wetterkarte
  • News
  • Widgets
  • user-avatar
    Anmelden

    Stündliche Wetter Tottori

    Heute, 6 Juni, Samstag

    Zeit Temperatur Niederschläge Wind Luftdruck Luftfeuchtigkeit
    00:00 +19°C° 0 mm 1 m/S 725 mmHg 93%
    01:00 +19°C° 0 mm 1 m/S 725 mmHg 91%
    02:00 +19°C° 0 mm 1 m/S 725 mmHg 90%
    03:00 +19°C° 0 mm 1 m/S 725 mmHg 90%
    04:00 +19°C° 0 mm 1 m/S 725 mmHg 90%
    05:00 +19°C° 0 mm 1 m/S 726 mmHg 91%
    06:00 +19°C° 0 mm 1 m/S 726 mmHg 92%
    07:00 +21°C° 0 mm 1 m/S 726 mmHg 83%
    08:00 +23°C° 0 mm 1 m/S 726 mmHg 75%
    09:00 +25°C° 0 mm 1 m/S 726 mmHg 61%
    10:00 +26°C° 0 mm 1 m/S 726 mmHg 60%
    11:00 +27°C° 0 mm 1 m/S 727 mmHg 59%
    12:00 +28°C° 0 mm 2 m/S 727 mmHg 57%
    13:00 +27°C° 0.1 mm 2 m/S 726 mmHg 62%
    14:00 +26°C° 0.1 mm 2 m/S 725 mmHg 66%
    15:00 +26°C° 0 mm 2 m/S 725 mmHg 70%
    16:00 +24°C° 0.5 mm 2 m/S 725 mmHg 77%
    17:00 +23°C° 0.5 mm 2 m/S 725 mmHg 84%
    18:00 +20°C° 0.5 mm 2 m/S 725 mmHg 90%
    19:00 +19°C° 0 mm 2 m/S 725 mmHg 92%
    20:00 +19°C° 0 mm 1 m/S 725 mmHg 93%
    21:00 +16°C° 0 mm 1 m/S 725 mmHg 94%
    22:00 +16°C° 0 mm 1 m/S 725 mmHg 94%
    23:00 +16°C° 0 mm 1 m/S 726 mmHg 93%

    Morgen, 7 Juni, Sonntag

    Zeit Temperatur Niederschläge Wind Luftdruck Luftfeuchtigkeit
    00:00 +15°C° 0 mm 1 m/S 726 mmHg 92%
    01:00 +15°C° 0 mm 1 m/S 726 mmHg 92%
    02:00 +14°C° 0 mm 1 m/S 725 mmHg 92%
    03:00 +13°C° 0 mm 1 m/S 725 mmHg 91%
    04:00 +14°C° 0 mm 1 m/S 726 mmHg 89%
    05:00 +14°C° 0 mm 1 m/S 726 mmHg 87%
    06:00 +14°C° 0 mm 1 m/S 727 mmHg 84%
    07:00 +18°C° 0 mm 1 m/S 727 mmHg 73%
    08:00 +19°C° 0 mm 2 m/S 727 mmHg 62%
    09:00 +23°C° 0 mm 2 m/S 727 mmHg 50%
    10:00 +24°C° 0 mm 2 m/S 728 mmHg 48%
    11:00 +25°C° 0 mm 3 m/S 728 mmHg 45%
    12:00 +26°C° 0 mm 3 m/S 728 mmHg 42%
    13:00 +26°C° 0 mm 3 m/S 728 mmHg 42%
    14:00 +26°C° 0 mm 3 m/S 728 mmHg 43%
    15:00 +25°C° 0 mm 3 m/S 727 mmHg 43%
    16:00 +24°C° 0 mm 2 m/S 727 mmHg 51%
    17:00 +23°C° 0 mm 2 m/S 728 mmHg 58%
    18:00 +20°C° 0 mm 2 m/S 728 mmHg 66%
    19:00 +18°C° 0 mm 2 m/S 728 mmHg 72%
    20:00 +16°C° 0 mm 1 m/S 728 mmHg 78%
    21:00 +14°C° 0 mm 1 m/S 728 mmHg 84%
    22:00 +14°C° 0 mm 1 m/S 728 mmHg 80%
    23:00 +14°C° 0 mm 1 m/S 729 mmHg 75%

    übermorgen, 8 Juni, Montag

    Zeit Temperatur Niederschläge Wind Luftdruck Luftfeuchtigkeit
    00:00 +13°C° 0 mm 1 m/S 729 mmHg 71%
    01:00 +14°C° 0 mm 1 m/S 729 mmHg 64%
    02:00 +14°C° 0 mm 1 m/S 729 mmHg 57%
    03:00 +14°C° 0 mm 1 m/S 729 mmHg 51%
    04:00 +15°C° 0 mm 1 m/S 729 mmHg 53%
    05:00 +14°C° 0 mm 0 m/S 730 mmHg 56%
    06:00 +15°C° 0 mm 0 m/S 730 mmHg 59%
    07:00 +18°C° 0 mm 0 m/S 731 mmHg 53%
    08:00 +21°C° 0 mm 0 m/S 731 mmHg 47%
    09:00 +25°C° 0 mm 0 m/S 731 mmHg 41%
    10:00 +28°C° 0 mm 1 m/S 732 mmHg 37%
    11:00 +29°C° 0 mm 1 m/S 732 mmHg 34%
    12:00 +31°C° 0 mm 1 m/S 732 mmHg 30%
    13:00 +31°C° 0 mm 1 m/S 732 mmHg 32%
    14:00 +30°C° 0 mm 2 m/S 731 mmHg 33%
    15:00 +30°C° 0 mm 2 m/S 731 mmHg 35%
    16:00 +29°C° 0 mm 2 m/S 731 mmHg 44%
    17:00 +27°C° 0 mm 1 m/S 731 mmHg 52%
    18:00 +25°C° 0 mm 1 m/S 731 mmHg 61%
    19:00 +23°C° 0 mm 1 m/S 731 mmHg 61%
    20:00 +21°C° 0 mm 1 m/S 731 mmHg 62%
    21:00 +19°C° 0 mm 1 m/S 731 mmHg 63%
    22:00 +19°C° 0 mm 1 m/S 732 mmHg 66%
    23:00 +17°C° 0 mm 2 m/S 732 mmHg 69%

    9 Juni, Dienstag

    Zeit Temperatur Niederschläge Wind Luftdruck Luftfeuchtigkeit
    00:00 +17°C° 0 mm 2 m/S 732 mmHg 72%
    01:00 +17°C° 0 mm 2 m/S 732 mmHg 76%
    02:00 +17°C° 0 mm 2 m/S 731 mmHg 79%
    03:00 +16°C° 0 mm 2 m/S 731 mmHg 82%
    04:00 +17°C° 0 mm 2 m/S 732 mmHg 83%
    05:00 +18°C° 0 mm 2 m/S 732 mmHg 83%
    06:00 +18°C° 0 mm 2 m/S 732 mmHg 84%
    07:00 +21°C° 0 mm 2 m/S 733 mmHg 75%
    08:00 +24°C° 0 mm 1 m/S 733 mmHg 66%
    09:00 +27°C° 0 mm 1 m/S 733 mmHg 57%
    10:00 +28°C° 0 mm 2 m/S 733 mmHg 53%
    11:00 +29°C° 0 mm 2 m/S 733 mmHg 48%
    12:00 +30°C° 0 mm 2 m/S 733 mmHg 44%
    13:00 +30°C° 0 mm 2 m/S 733 mmHg 44%
    14:00 +30°C° 0 mm 2 m/S 732 mmHg 44%
    15:00 +30°C° 0 mm 2 m/S 732 mmHg 44%
    16:00 +29°C° 0 mm 2 m/S 732 mmHg 51%
    17:00 +27°C° 0 mm 2 m/S 732 mmHg 58%
    18:00 +26°C° 0 mm 1 m/S 732 mmHg 65%
    19:00 +23°C° 0 mm 2 m/S 732 mmHg 70%
    20:00 +20°C° 0 mm 2 m/S 732 mmHg 74%
    21:00 +18°C° 0 mm 2 m/S 732 mmHg 78%
    22:00 +18°C° 0 mm 2 m/S 732 mmHg 83%
    23:00 +17°C° 0 mm 2 m/S 732 mmHg 87%

    10 Juni, Mittwoch

    Zeit Temperatur Niederschläge Wind Luftdruck Luftfeuchtigkeit
    00:00 +17°C° 0 mm 2 m/S 732 mmHg 91%
    01:00 +17°C° 0 mm 2 m/S 732 mmHg 92%
    02:00 +17°C° 0 mm 2 m/S 732 mmHg 94%
    03:00 +18°C° 0 mm 1 m/S 732 mmHg 95%
    04:00 +19°C° 0 mm 1 m/S 732 mmHg 94%
    05:00 +19°C° 0 mm 1 m/S 732 mmHg 94%
    06:00 +19°C° 0 mm 1 m/S 732 mmHg 93%
    07:00 +22°C° 0 mm 1 m/S 732 mmHg 84%
    08:00 +24°C° 0 mm 1 m/S 732 mmHg 75%
    09:00 +26°C° 0 mm 1 m/S 732 mmHg 66%
    10:00 +27°C° 0 mm 2 m/S 732 mmHg 62%
    11:00 +28°C° 0 mm 2 m/S 732 mmHg 58%
    12:00 +29°C° 0 mm 2 m/S 731 mmHg 54%
    13:00 +29°C° 0 mm 3 m/S 731 mmHg 53%
    14:00 +29°C° 0 mm 3 m/S 730 mmHg 51%
    15:00 +29°C° 0 mm 3 m/S 730 mmHg 50%
    16:00 +28°C° 0 mm 3 m/S 729 mmHg 58%
    17:00 +26°C° 0 mm 3 m/S 729 mmHg 65%
    18:00 +25°C° 0 mm 3 m/S 728 mmHg 72%
    19:00 +24°C° 0 mm 3 m/S 728 mmHg 81%
    20:00 +23°C° 0 mm 2 m/S 729 mmHg 89%
    21:00 +20°C° 0 mm 2 m/S 729 mmHg 97%
    22:00 +20°C° 0 mm 2 m/S 728 mmHg 97%
    23:00 +20°C° 0 mm 2 m/S 728 mmHg 97%

    11 Juni, Donnerstag

    Zeit Temperatur Niederschläge Wind Luftdruck Luftfeuchtigkeit
    00:00 +20°C° 0 mm 2 m/S 728 mmHg 97%
    01:00 +20°C° 0 mm 2 m/S 727 mmHg 96%
    02:00 +20°C° 0 mm 3 m/S 727 mmHg 96%
    03:00 +20°C° 0 mm 3 m/S 727 mmHg 96%
    04:00 +20°C° 0 mm 3 m/S 726 mmHg 95%
    05:00 +20°C° 0 mm 3 m/S 726 mmHg 94%
    06:00 +21°C° 0 mm 3 m/S 726 mmHg 94%
    07:00 +22°C° 0 mm 3 m/S 726 mmHg 87%
    08:00 +25°C° 0 mm 4 m/S 726 mmHg 81%
    09:00 +26°C° 0 mm 4 m/S 726 mmHg 74%
    10:00 +25°C° 0.7 mm 3 m/S 726 mmHg 81%
    11:00 +24°C° 0.7 mm 3 m/S 725 mmHg 88%
    12:00 +23°C° 0.7 mm 2 m/S 725 mmHg 96%
    13:00 +23°C° 2.8 mm 2 m/S 725 mmHg 97%
    14:00 +23°C° 2.8 mm 2 m/S 725 mmHg 97%
    15:00 +21°C° 2.8 mm 2 m/S 725 mmHg 98%
    16:00 +23°C° 1 mm 2 m/S 725 mmHg 98%
    17:00 +23°C° 1 mm 2 m/S 725 mmHg 98%
    18:00 +23°C° 1 mm 2 m/S 725 mmHg 98%
    19:00 +23°C° 1.2 mm 1 m/S 726 mmHg 98%
    20:00 +23°C° 1.2 mm 1 m/S 726 mmHg 99%
    21:00 +23°C° 1.2 mm 1 m/S 727 mmHg 99%
    22:00 +23°C° 1.3 mm 1 m/S 727 mmHg 99%
    23:00 +23°C° 1.3 mm 1 m/S 727 mmHg 99%
    Mehr zeigen